| time (UTC) | temp F | wind direction | speed MPH | gust MPH | rain 1hr in | rain 24hr in | rain mn in | humidity % | barometer mb |
| 20260504141208 | 73 | 239 | 19.0 | 27.0 | 0.00 | 0.00 | 0.00 | 100 | 943.5 |
| 20260504140808 | 73 | 254 | 17.0 | 20.0 | 0.00 | 0.00 | 0.00 | 100 | 943.5 |
| 20260504130756 | 74 | 240 | 17.0 | 26.0 | 0.00 | 0.00 | 0.00 | 100 | 943.9 |
| 20260504130356 | 73 | 244 | 18.0 | 29.0 | 0.00 | 0.00 | 0.00 | 100 | 944.0 |
| 20260504110324 | 72 | 252 | 20.0 | 27.0 | 0.00 | 0.00 | 0.00 | 100 | 944.9 |
| 20260504100315 | 70 | 266 | 21.0 | 26.0 | 0.00 | 0.00 | 0.00 | 100 | 945.5 |
| 20260504081850 | 65 | 255 | 18.0 | 21.0 | 0.00 | 0.00 | 0.00 | 100 | 946.0 |
| 20260504081450 | 65 | 263 | 17.0 | 23.0 | 0.00 | 0.00 | 0.00 | 100 | 945.9 |
| 20260504081047 | 64 | 260 | 16.0 | 21.0 | 0.00 | 0.00 | 0.00 | 100 | 946.0 |
| 20260504080647 | 64 | 253 | 19.0 | 26.0 | 0.00 | 0.00 | 0.00 | 100 | 946.0 |
| 20260504080247 | 64 | 249 | 19.0 | 23.0 | 0.00 | 0.00 | 0.00 | 100 | 945.9 |
| 20260504070235 | 60 | 240 | 11.0 | 18.0 | 0.00 | 0.00 | 0.00 | 100 | 945.7 |
| 20260504060216 | 56 | 241 | 9.0 | 11.0 | 0.00 | 0.00 | 0.00 | 100 | 945.5 |
| 20260504050604 | 53 | 243 | 12.0 | 15.0 | 0.00 | 0.00 | 0.00 | 100 | 945.3 |
| 20260504050204 | 53 | 244 | 13.0 | 16.0 | 0.00 | 0.00 | 0.00 | 100 | 945.3 |
| 20260504045804 | 53 | 241 | 12.0 | 15.0 | 0.00 | 0.00 | 0.00 | 100 | 945.3 |
| 20260504045404 | 53 | 243 | 12.0 | 15.0 | 0.00 | 0.00 | 0.00 | 100 | 945.3 |
| 20260504045001 | 53 | 244 | 14.0 | 17.0 | 0.00 | 0.00 | 0.00 | 100 | 945.3 |
| 20260504044601 | 53 | 245 | 14.0 | 16.0 | 0.00 | 0.00 | 0.00 | 100 | 945.4 |
| 20260504044201 | 52 | 244 | 13.0 | 16.0 | 0.00 | 0.00 | 0.00 | 100 | 945.4 |
| 20260504043801 | 52 | 246 | 14.0 | 16.0 | 0.00 | 0.00 | 0.00 | 100 | 945.4 |
| 20260504043401 | 52 | 245 | 13.0 | 16.0 | 0.00 | 0.00 | 0.00 | 100 | 945.4 |
| 20260504042958 | 52 | 245 | 13.0 | 16.0 | 0.00 | 0.00 | 0.00 | 100 | 945.3 |
| 20260504042558 | 52 | 244 | 13.0 | 16.0 | 0.00 | 0.00 | 0.00 | 100 | 945.3 |
| 20260504042158 | 52 | 246 | 14.0 | 17.0 | 0.00 | 0.00 | 0.00 | 100 | 945.3 |
| 20260504041758 | 52 | 244 | 14.0 | 17.0 | 0.00 | 0.00 | 0.00 | 100 | 945.3 |
| 20260504041358 | 52 | 245 | 14.0 | 17.0 | 0.00 | 0.00 | 0.00 | 100 | 945.3 |
| 20260504040955 | 52 | 244 | 13.0 | 16.0 | 0.00 | 0.00 | 0.00 | 100 | 945.3 |
| 20260504040555 | 52 | 243 | 13.0 | 16.0 | 0.00 | 0.00 | 0.00 | 100 | 945.3 |
| 20260504040155 | 52 | 244 | 13.0 | 16.0 | 0.00 | 0.00 | 0.00 | 100 | 945.3 |
| 20260504035755 | 51 | 244 | 13.0 | 16.0 | 0.00 | 0.00 | 0.00 | 100 | 945.2 |
| 20260504035347 | 51 | 244 | 14.0 | 17.0 | 0.00 | 0.00 | 0.00 | 100 | 945.2 |
| 20260504034944 | 51 | 243 | 13.0 | 15.0 | 0.00 | 0.00 | 0.00 | 100 | 945.3 |
| 20260504034544 | 51 | 243 | 14.0 | 15.0 | 0.00 | 0.00 | 0.00 | 100 | 945.2 |
| 20260504033744 | 51 | 244 | 14.0 | 15.0 | 0.00 | 0.00 | 0.00 | 100 | 945.2 |
| 20260504033344 | 51 | 243 | 11.0 | 14.0 | 0.00 | 0.00 | 0.00 | 100 | 945.2 |
| 20260504032937 | 51 | 244 | 14.0 | 16.0 | 0.00 | 0.00 | 0.00 | 100 | 945.2 |
| 20260504032537 | 51 | 241 | 12.0 | 17.0 | 0.00 | 0.00 | 0.00 | 100 | 945.2 |
| 20260504032137 | 51 | 244 | 13.0 | 16.0 | 0.00 | 0.00 | 0.00 | 100 | 945.2 |
| 20260504031737 | 51 | 241 | 13.0 | 15.0 | 0.00 | 0.00 | 0.00 | 100 | 945.2 |
| 20260504031337 | 51 | 241 | 12.0 | 14.0 | 0.00 | 0.00 | 0.00 | 100 | 945.2 |
| 20260504030934 | 51 | 238 | 12.0 | 16.0 | 0.00 | 0.00 | 0.00 | 100 | 945.2 |
| 20260504030534 | 51 | 238 | 10.0 | 14.0 | 0.00 | 0.00 | 0.00 | 100 | 945.2 |
| 20260504030134 | 51 | 239 | 12.0 | 15.0 | 0.00 | 0.00 | 0.00 | 100 | 945.2 |
| 20260504025734 | 51 | 240 | 13.0 | 16.0 | 0.00 | 0.00 | 0.00 | 100 | 945.2 |
| 20260504025334 | 51 | 242 | 14.0 | 15.0 | 0.00 | 0.00 | 0.00 | 100 | 945.2 |
| 20260504024931 | 51 | 239 | 11.0 | 13.0 | 0.00 | 0.00 | 0.00 | 100 | 945.2 |
| 20260504024532 | 51 | 237 | 11.0 | 14.0 | 0.00 | 0.00 | 0.00 | 100 | 945.2 |
| 20260504024132 | 51 | 240 | 12.0 | 16.0 | 0.00 | 0.00 | 0.00 | 100 | 945.2 |
| 20260504023732 | 51 | 241 | 13.0 | 16.0 | 0.00 | 0.00 | 0.00 | 100 | 945.2 |
| 20260504023332 | 51 | 239 | 12.0 | 16.0 | 0.00 | 0.00 | 0.00 | 100 | 945.2 |
| 20260504022929 | 51 | 242 | 13.0 | 16.0 | 0.00 | 0.00 | 0.00 | 100 | 945.2 |
| 20260504022529 | 51 | 239 | 12.0 | 15.0 | 0.00 | 0.00 | 0.00 | 100 | 945.2 |
| 20260504022129 | 51 | 238 | 13.0 | 15.0 | 0.00 | 0.00 | 0.00 | 100 | 945.3 |
| 20260504021729 | 51 | 240 | 13.0 | 16.0 | 0.00 | 0.00 | 0.00 | 100 | 945.2 |
| 20260504021329 | 51 | 239 | 12.0 | 16.0 | 0.00 | 0.00 | 0.00 | 100 | 945.2 |
| 20260504020926 | 52 | 241 | 13.0 | 15.0 | 0.00 | 0.00 | 0.00 | 100 | 945.2 |
| 20260504020526 | 52 | 241 | 14.0 | 16.0 | 0.00 | 0.00 | 0.00 | 100 | 945.3 |
| 20260504020126 | 52 | 237 | 12.0 | 16.0 | 0.00 | 0.00 | 0.00 | 100 | 945.3 |
| 20260504015726 | 52 | 239 | 12.0 | 16.0 | 0.00 | 0.00 | 0.00 | 100 | 945.4 |
| 20260504015326 | 52 | 241 | 13.0 | 16.0 | 0.00 | 0.00 | 0.00 | 100 | 945.4 |
| 20260504014923 | 52 | 240 | 13.0 | 17.0 | 0.00 | 0.00 | 0.00 | 100 | 945.4 |
| 20260504014523 | 52 | 239 | 12.0 | 15.0 | 0.00 | 0.00 | 0.00 | 100 | 945.4 |
| 20260504014123 | 52 | 239 | 12.0 | 15.0 | 0.00 | 0.00 | 0.00 | 100 | 945.4 |
| 20260504013723 | 52 | 241 | 14.0 | 17.0 | 0.00 | 0.00 | 0.00 | 100 | 945.4 |
| 20260504013323 | 52 | 241 | 13.0 | 16.0 | 0.00 | 0.00 | 0.00 | 100 | 945.4 |
| 20260504012920 | 52 | 241 | 13.0 | 16.0 | 0.00 | 0.00 | 0.00 | 100 | 945.3 |
| 20260504012517 | 52 | 241 | 12.0 | 16.0 | 0.00 | 0.00 | 0.00 | 100 | 945.3 |
| 20260504012117 | 52 | 243 | 14.0 | 18.0 | 0.00 | 0.00 | 0.00 | 100 | 945.4 |
| 20260504011705 | 52 | 243 | 15.0 | 18.0 | 0.00 | 0.00 | 0.00 | 100 | 945.4 |
| 20260504011305 | 51 | 243 | 13.0 | 17.0 | 0.00 | 0.00 | 0.00 | 100 | 945.4 |
| 20260504010903 | 51 | 243 | 14.0 | 16.0 | 0.00 | 0.00 | 0.00 | 100 | 945.4 |
| 20260504010503 | 51 | 241 | 13.0 | 18.0 | 0.00 | 0.00 | 0.00 | 100 | 945.4 |
| 20260504005703 | 52 | 240 | 12.0 | 14.0 | 0.00 | 0.00 | 0.00 | 100 | 945.4 |
| 20260504005304 | 52 | 241 | 12.0 | 15.0 | 0.00 | 0.00 | 0.00 | 100 | 945.5 |
| 20260504004900 | 52 | 242 | 11.0 | 13.0 | 0.00 | 0.00 | 0.00 | 100 | 945.5 |
| 20260504004500 | 52 | 242 | 12.0 | 14.0 | 0.00 | 0.00 | 0.00 | 100 | 945.5 |
| 20260504004100 | 52 | 242 | 12.0 | 15.0 | 0.00 | 0.00 | 0.00 | 100 | 945.5 |
| 20260504003700 | 52 | 242 | 12.0 | 15.0 | 0.00 | 0.00 | 0.00 | 100 | 945.6 |
| 20260504003300 | 52 | 241 | 12.0 | 14.0 | 0.00 | 0.00 | 0.00 | 100 | 945.6 |
| 20260504002857 | 52 | 244 | 13.0 | 15.0 | 0.00 | 0.00 | 0.00 | 100 | 945.6 |
| 20260504002457 | 52 | 242 | 13.0 | 15.0 | 0.00 | 0.00 | 0.00 | 100 | 945.6 |
| 20260504002057 | 52 | 244 | 12.0 | 14.0 | 0.00 | 0.00 | 0.00 | 100 | 945.6 |
| 20260504001657 | 52 | 241 | 13.0 | 15.0 | 0.00 | 0.00 | 0.00 | 100 | 945.6 |
| 20260504001257 | 52 | 244 | 13.0 | 16.0 | 0.00 | 0.00 | 0.00 | 100 | 945.7 |
| 20260504000854 | 52 | 243 | 12.0 | 15.0 | 0.00 | 0.00 | 0.00 | 100 | 945.7 |
| 20260504000454 | 52 | 243 | 12.0 | 14.0 | 0.00 | 0.00 | 0.00 | 100 | 945.7 |
| 20260504000054 | 52 | 245 | 13.0 | 17.0 | 0.00 | 0.00 | 0.00 | 100 | 945.7 |
| 20260503235255 | 52 | 245 | 14.0 | 16.0 | 0.00 | 0.00 | 0.00 | 100 | 945.7 |
| 20260503234852 | 52 | 244 | 12.0 | 15.0 | 0.00 | 0.00 | 0.00 | 100 | 945.7 |
| 20260503234451 | 52 | 245 | 12.0 | 15.0 | 0.00 | 0.00 | 0.00 | 100 | 945.7 |
| 20260503234051 | 53 | 244 | 12.0 | 15.0 | 0.00 | 0.00 | 0.00 | 100 | 945.7 |
| 20260503233651 | 53 | 245 | 12.0 | 14.0 | 0.00 | 0.00 | 0.00 | 100 | 945.8 |
| 20260503233251 | 53 | 245 | 12.0 | 13.0 | 0.00 | 0.00 | 0.00 | 100 | 945.8 |
| 20260503232848 | 53 | 244 | 10.0 | 12.0 | 0.00 | 0.00 | 0.00 | 100 | 945.8 |
| 20260503232449 | 53 | 245 | 11.0 | 14.0 | 0.00 | 0.00 | 0.00 | 100 | 945.8 |
| 20260503232045 | 53 | 244 | 12.0 | 14.0 | 0.00 | 0.00 | 0.00 | 100 | 945.8 |
| 20260503231645 | 53 | 244 | 12.0 | 14.0 | 0.00 | 0.00 | 0.00 | 100 | 945.8 |
| 20260503231245 | 53 | 241 | 11.0 | 13.0 | 0.00 | 0.00 | 0.00 | 100 | 945.7 |
| 20260503230842 | 53 | 243 | 11.0 | 14.0 | 0.00 | 0.00 | 0.00 | 100 | 945.7 |
| 20260503230442 | 53 | 243 | 10.0 | 12.0 | 0.00 | 0.00 | 0.00 | 100 | 945.8 |
| 20260503230042 | 53 | 241 | 11.0 | 14.0 | 0.00 | 0.00 | 0.00 | 100 | 945.8 |
| 20260503225642 | 54 | 242 | 11.0 | 13.0 | 0.00 | 0.00 | 0.00 | 100 | 945.8 |
| 20260503225242 | 54 | 243 | 12.0 | 14.0 | 0.00 | 0.00 | 0.00 | 100 | 945.8 |
| 20260503224840 | 54 | 245 | 12.0 | 15.0 | 0.00 | 0.00 | 0.00 | 100 | 945.7 |
| 20260503224440 | 53 | 248 | 11.0 | 13.0 | 0.00 | 0.00 | 0.00 | 100 | 945.8 |
| 20260503224031 | 53 | 246 | 12.0 | 14.0 | 0.00 | 0.00 | 0.00 | 100 | 945.8 |
| 20260503223631 | 53 | 243 | 10.0 | 13.0 | 0.00 | 0.00 | 0.00 | 100 | 945.8 |
| 20260503223231 | 54 | 240 | 8.0 | 10.0 | 0.00 | 0.00 | 0.00 | 100 | 945.8 |
| 20260503222828 | 54 | 239 | 8.0 | 11.0 | 0.00 | 0.00 | 0.00 | 100 | 945.8 |
| 20260503222428 | 54 | 239 | 8.0 | 10.0 | 0.00 | 0.00 | 0.00 | 100 | 945.8 |
| 20260503222028 | 54 | 242 | 8.0 | 10.0 | 0.00 | 0.00 | 0.00 | 100 | 945.8 |
| 20260503221628 | 54 | 241 | 8.0 | 10.0 | 0.00 | 0.00 | 0.00 | 100 | 945.8 |
| 20260503221228 | 55 | 242 | 9.0 | 11.0 | 0.00 | 0.00 | 0.00 | 100 | 945.8 |
| 20260503220826 | 55 | 245 | 10.0 | 11.0 | 0.00 | 0.00 | 0.00 | 100 | 945.8 |
| 20260503220426 | 55 | 243 | 9.0 | 10.0 | 0.00 | 0.00 | 0.00 | 100 | 945.8 |
| 20260503220026 | 55 | 237 | 6.0 | 9.0 | 0.00 | 0.00 | 0.00 | 100 | 945.7 |
| 20260503215626 | 55 | 238 | 7.0 | 9.0 | 0.00 | 0.00 | 0.00 | 100 | 945.7 |
| 20260503215226 | 55 | 237 | 7.0 | 10.0 | 0.00 | 0.00 | 0.00 | 100 | 945.7 |
| 20260503214823 | 55 | 239 | 8.0 | 10.0 | 0.00 | 0.00 | 0.00 | 100 | 945.8 |
| 20260503214423 | 55 | 241 | 8.0 | 10.0 | 0.00 | 0.00 | 0.00 | 100 | 945.8 |
| 20260503214023 | 55 | 239 | 8.0 | 10.0 | 0.00 | 0.00 | 0.00 | 100 | 945.7 |
| 20260503213622 | 56 | 244 | 8.0 | 11.0 | 0.00 | 0.00 | 0.00 | 100 | 945.7 |
| 20260503213249 | 0 | 241 | 8.0 | 0.0 | 0.00 | 0.00 | 0.00 | ||
| 20260503213223 | 56 | 241 | 8.0 | 10.0 | 0.00 | 0.00 | 0.00 | 100 | 945.7 |
| 20260503212820 | 56 | 242 | 9.0 | 11.0 | 0.00 | 0.00 | 0.00 | 100 | 945.7 |
| 20260503212420 | 56 | 242 | 8.0 | 10.0 | 0.00 | 0.00 | 0.00 | 100 | 945.7 |
| 20260503212020 | 56 | 243 | 8.0 | 10.0 | 0.00 | 0.00 | 0.00 | 100 | 945.7 |
| 20260503211617 | 56 | 241 | 9.0 | 12.0 | 0.00 | 0.00 | 0.00 | 100 | 945.7 |
| 20260503211217 | 56 | 241 | 8.0 | 10.0 | 0.00 | 0.00 | 0.00 | 100 | 945.7 |
| 20260503210814 | 56 | 243 | 9.0 | 10.0 | 0.00 | 0.00 | 0.00 | 100 | 945.8 |
| 20260503210414 | 56 | 245 | 9.0 | 11.0 | 0.00 | 0.00 | 0.00 | 100 | 945.8 |
| 20260503210014 | 56 | 244 | 9.0 | 10.0 | 0.00 | 0.00 | 0.00 | 100 | 945.7 |
| 20260503205614 | 56 | 241 | 8.0 | 10.0 | 0.00 | 0.00 | 0.00 | 100 | 945.7 |
| 20260503205214 | 56 | 243 | 8.0 | 10.0 | 0.00 | 0.00 | 0.00 | 100 | 945.7 |
| 20260503204811 | 57 | 246 | 10.0 | 12.0 | 0.00 | 0.00 | 0.00 | 100 | 945.7 |
| 20260503204411 | 57 | 243 | 9.0 | 11.0 | 0.00 | 0.00 | 0.00 | 100 | 945.7 |
| 20260503204011 | 57 | 246 | 9.0 | 10.0 | 0.00 | 0.00 | 0.00 | 100 | 945.7 |
| 20260503203611 | 58 | 244 | 7.0 | 9.0 | 0.00 | 0.00 | 0.00 | 100 | 945.8 |
| 20260503203211 | 58 | 236 | 4.0 | 5.0 | 0.00 | 0.00 | 0.00 | 100 | 945.8 |
| 20260503202808 | 58 | 235 | 4.0 | 7.0 | 0.00 | 0.00 | 0.00 | 100 | 945.8 |
| 20260503202408 | 57 | 236 | 4.0 | 5.0 | 0.00 | 0.00 | 0.00 | 100 | 945.8 |
| 20260503202008 | 57 | 234 | 4.0 | 5.0 | 0.00 | 0.00 | 0.00 | 100 | 945.8 |
| 20260503201608 | 58 | 232 | 4.0 | 6.0 | 0.00 | 0.00 | 0.00 | 100 | 945.8 |
| 20260503201208 | 58 | 229 | 7.0 | 10.0 | 0.00 | 0.00 | 0.00 | 100 | 945.7 |
| 20260503200754 | 58 | 231 | 6.0 | 10.0 | 0.00 | 0.00 | 0.00 | 100 | 945.8 |
| 20260503200354 | 58 | 231 | 5.0 | 7.0 | 0.00 | 0.00 | 0.00 | 100 | 945.8 |
| 20260503195554 | 58 | 237 | 5.0 | 7.0 | 0.00 | 0.00 | 0.00 | 100 | 945.8 |
| 20260503195154 | 58 | 233 | 4.0 | 5.0 | 0.00 | 0.00 | 0.00 | 100 | 945.9 |
| 20260503194751 | 58 | 233 | 7.0 | 10.0 | 0.00 | 0.00 | 0.00 | 100 | 945.9 |
| 20260503194351 | 58 | 233 | 6.0 | 11.0 | 0.00 | 0.00 | 0.00 | 100 | 945.9 |
| 20260503193952 | 58 | 233 | 8.0 | 10.0 | 0.00 | 0.00 | 0.00 | 100 | 945.9 |
| 20260503193552 | 59 | 239 | 10.0 | 10.0 | 0.00 | 0.00 | 0.00 | 100 | 945.9 |
| 20260503193152 | 59 | 244 | 11.0 | 11.0 | 0.00 | 0.00 | 0.00 | 100 | 945.9 |
| 20260503192749 | 59 | 248 | 11.0 | 12.0 | 0.00 | 0.00 | 0.00 | 100 | 945.9 |
| 20260503192348 | 59 | 242 | 11.0 | 12.0 | 0.00 | 0.00 | 0.00 | 100 | 945.9 |
| 20260503191948 | 59 | 241 | 11.0 | 12.0 | 0.00 | 0.00 | 0.00 | 100 | 946.0 |
| 20260503191548 | 59 | 236 | 11.0 | 12.0 | 0.00 | 0.00 | 0.00 | 100 | 946.0 |
| 20260503191145 | 59 | 235 | 12.0 | 12.0 | 0.00 | 0.00 | 0.00 | 100 | 945.9 |
| 20260503190742 | 59 | 236 | 11.0 | 12.0 | 0.00 | 0.00 | 0.00 | 100 | 945.9 |
| 20260503190342 | 59 | 240 | 11.0 | 11.0 | 0.00 | 0.00 | 0.00 | 100 | 945.9 |
| 20260503185942 | 59 | 243 | 11.0 | 12.0 | 0.00 | 0.00 | 0.00 | 100 | 945.9 |
| 20260503185542 | 59 | 242 | 11.0 | 12.0 | 0.00 | 0.00 | 0.00 | 100 | 945.9 |
| 20260503185143 | 59 | 243 | 10.0 | 12.0 | 0.00 | 0.00 | 0.00 | 100 | 945.9 |
| 20260503184740 | 59 | 245 | 10.0 | 11.0 | 0.00 | 0.00 | 0.00 | 100 | 945.9 |
| 20260503184340 | 59 | 253 | 10.0 | 12.0 | 0.00 | 0.00 | 0.00 | 100 | 945.9 |
| 20260503183940 | 59 | 251 | 10.0 | 11.0 | 0.00 | 0.00 | 0.00 | 100 | 945.9 |
| 20260503183540 | 59 | 252 | 10.0 | 12.0 | 0.00 | 0.00 | 0.00 | 100 | 945.9 |
| 20260503183140 | 59 | 257 | 10.0 | 12.0 | 0.00 | 0.00 | 0.00 | 100 | 945.9 |
| 20260503182737 | 59 | 254 | 10.0 | 12.0 | 0.00 | 0.00 | 0.00 | 100 | 945.8 |
| 20260503182337 | 59 | 256 | 10.0 | 11.0 | 0.00 | 0.00 | 0.00 | 100 | 945.8 |
| 20260503181937 | 59 | 258 | 10.0 | 12.0 | 0.00 | 0.00 | 0.00 | 100 | 945.8 |
| 20260503181537 | 59 | 258 | 10.0 | 11.0 | 0.00 | 0.00 | 0.00 | 100 | 945.8 |
| 20260503181137 | 59 | 258 | 10.0 | 12.0 | 0.00 | 0.00 | 0.00 | 100 | 945.8 |
| 20260503180734 | 59 | 261 | 9.0 | 11.0 | 0.00 | 0.00 | 0.00 | 100 | 945.8 |
| 20260503180334 | 60 | 258 | 9.0 | 10.0 | 0.00 | 0.00 | 0.00 | 100 | 945.8 |
| 20260503175934 | 60 | 259 | 9.0 | 11.0 | 0.00 | 0.00 | 0.00 | 100 | 945.7 |
| 20260503175534 | 60 | 259 | 9.0 | 12.0 | 0.00 | 0.00 | 0.00 | 100 | 945.7 |
| 20260503175134 | 60 | 257 | 9.0 | 12.0 | 0.00 | 0.00 | 0.00 | 100 | 945.7 |
| 20260503174731 | 60 | 255 | 10.0 | 11.0 | 0.00 | 0.00 | 0.00 | 100 | 945.7 |
| 20260503174331 | 60 | 253 | 10.0 | 12.0 | 0.00 | 0.00 | 0.00 | 100 | 945.7 |
| 20260503173931 | 60 | 256 | 9.0 | 11.0 | 0.00 | 0.00 | 0.00 | 100 | 945.7 |
| 20260503173531 | 61 | 259 | 8.0 | 8.0 | 0.00 | 0.00 | 0.00 | 100 | 945.7 |
| 20260503173122 | 61 | 258 | 8.0 | 9.0 | 0.00 | 0.00 | 0.00 | 100 | 945.7 |
| 20260503172719 | 61 | 265 | 8.0 | 10.0 | 0.00 | 0.00 | 0.00 | 100 | 945.7 |
| 20260503172319 | 61 | 256 | 8.0 | 10.0 | 0.00 | 0.00 | 0.00 | 100 | 945.7 |
| 20260503171520 | 61 | 251 | 8.0 | 10.0 | 0.00 | 0.00 | 0.00 | 100 | 945.7 |
| 20260503171120 | 62 | 251 | 8.0 | 10.0 | 0.00 | 0.00 | 0.00 | 100 | 945.7 |
| 20260503170713 | 62 | 260 | 9.0 | 10.0 | 0.00 | 0.00 | 0.00 | 100 | 945.6 |
| 20260503170313 | 62 | 258 | 8.0 | 10.0 | 0.00 | 0.00 | 0.00 | 100 | 945.6 |
| 20260503150656 | 70 | 265 | 10.0 | 14.0 | 0.00 | 0.00 | 0.00 | 100 | 946.1 |
| 20260503150252 | 70 | 258 | 11.0 | 14.0 | 0.00 | 0.00 | 0.00 | 100 | 946.1 |